Regional Weather Roundup
Issued by NWS

Home | Current Version | Previous Version | Graphics & Text | Print | Product List | Glossary On
Versions: 1 2 3 4 5 6 7 8 9 10 11 12 13 14 15 16 17 18 19 20 21 22 23 24 25 26 27 28 29 30 31 32 33 34 35 36 37 38 39 40 41 42 43 44 45 46 47 48 49 50
328
ASUS45 KTFX 202210
RWRMT
MONTANA REGIONAL WEATHER ROUNDUP
NATIONAL WEATHER SERVICE GREAT FALLS MT
400 PM MDT THU JUL 20 2017

NOTE: "FAIR" INDICATES FEW OR NO CLOUDS BELOW 12000 FEET WITH NO
SIGNIFICANT WEATHER AND/OR OBSTRUCTIONS TO VISIBILITY.

MTZ001>007-043-202300-
WEST OF THE DIVIDE

CITY           SKY/WX    TMP DP  RH WIND       PRES   REMARKS
KALISPELL      PTSUNNY   88  39  17 W15G25    29.90F
MISSOULA       MOSUNNY   88  36  15 NW12G20   29.95S
BUTTE          SUNNY     88  21   8 NW20G25   30.03S
MULLAN PASS    MOSUNNY   66  41  40 VRB5      30.18S
ANACONDA         N/A     88  32  13 W14       29.99S
DEER LODGE       N/A     86  37  17 NW13G22   29.99F
EUREKA           N/A     84  37  18 MISG      29.92S
HAMILTON         N/A     86  37  17 W12G17    29.96S
LIBBY            N/A     82  41  23 S8        29.95S
PLAINS           N/A     85  47  26 W15       29.97S
THOMPSON FALLS   N/A     84  43  23 SW8       30.02S
$$

MTZ008-052>055-202300-
SOUTHWEST MONTANA

CITY           SKY/WX    TMP DP  RH WIND       PRES   REMARKS
DILLON         SUNNY     85  38  18 W21G32    29.97F
W YELLOWSTONE  CLOUDY    81  43  26 S16G24    30.17F
ENNIS          SUNNY     91  32  12 SW16G25   30.05F
THREE FORKS      N/A     96  33  11 S9        29.91F HX  90
TWIN BRIDGES     N/A     91  37  15 SW16      29.96F
$$

MTZ009-010-012-014-046-048-049-054-202300-
EAST SLOPES AND CENTRAL MONTANA

CITY           SKY/WX    TMP DP  RH WIND       PRES   REMARKS
CUT BANK       MOSUNNY   91  34  13 W24G37    29.87F
GREAT FALLS    SUNNY     95  25   8 W22G30    29.84F
HELENA         SUNNY     97  30   9 NW21G29   29.86F HX  91
CHOTEAU          N/A     93  30  10 W22       29.89F
$$

MTZ011-013-016-021-045-047-050-051-202300-
NORTH CENTRAL MONTANA

CITY           SKY/WX    TMP DP  RH WIND       PRES   REMARKS
HAVRE          SUNNY     97  38  13 E12G18    29.78F HX  92
LEWISTOWN      SUNNY     94  32  11 N9        29.89F
N BAR RANCH      N/A     93  34  12 NW10G16   29.94F
CHINOOK          N/A     93  43  17 E12G20    29.79F
$$

MTZ017>020-022>027-061-062-202300-
NORTHEAST MONTANA

CITY           SKY/WX    TMP DP  RH WIND       PRES   REMARKS
JORDAN           N/A    100  35  10 NW14      29.77F HX  94
SIDNEY         PTSUNNY   89  65  44 NE20G25   29.77F HX  91
WOLF POINT     SUNNY     96  47  18 NE24G35   29.79F HX  92
MALTA          SUNNY     95  43  16 NE14G23   29.79F HX  91
PLENTYWOOD       N/A     72  59  64 CALM      29.91F
SCOBEY           N/A     85  51  30 NE13      29.88F
$$

MTZ028>42-056>058-202300-
SOUTHCENTRAL AND SOUTHEAST MONTANA

CITY           SKY/WX    TMP DP  RH WIND       PRES   REMARKS
BAKER          CLOUDY    93  51  23 VRB7      29.81F THUNDER HX  90
BILLINGS       CLOUDY    95  43  16 SW20G30   29.90F HX  91
LIVINGSTON     SUNNY     95  38  13 SW20G26   29.93F HX  90
MILES CITY     CLOUDY   101  33   9 W22G28    29.80F HX  95
BIG TIMBER     SUNNY     91  37  15 SW8G15    29.95F
EKALAKA          N/A     95  43  16 W13       29.86F HX  91
FORSYTH          N/A     97  34  11 W10G16    29.81F HX  91
LAUREL           N/A     91  48  22 S16       29.91R
$$

REGIONAL REPORTS...DAKOTAS

CITY           SKY/WX    TMP DP  RH WIND       PRES   REMARKS
WILLISTON      CLOUDY    92  56  29 E16       29.84F HX  90
MINOT          CLOUDY    83  61  47 NE8       29.88F
DICKINSON      SUNNY     92  55  28 SE25G31   29.79F HX  90
BEACH            N/A     97  57  26 SE9       29.81F HX  95
CROSBY           N/A     75  64  69 N14G22    29.95R
TIOGA            N/A     90  50  25 E16G24    29.90F
WATFORD CITY     N/A     81  66  61 E10       29.84F
BISMARCK       SUNNY     96  54  24 S16       29.88F HX  94
GRAND FORKS    MOSUNNY   85  63  47 S8        29.94F
FARGO          SUNNY     88  65  46 S12       29.94F HX  90
BUFFALO SD       N/A    100  56  23 S30G39    29.77F HX  99
RAPID CITY     MOSUNNY   97  57  26 S14G23    29.94F HX  96
$$

REGIONAL REPORTS...WYOMING/IDAHO/WASHINGTON

CITY           SKY/WX    TMP DP  RH WIND       PRES   REMARKS
CODY           LGT RAIN  70  54  56 NW13G23   30.13R
YELLOWSTONE LA   N/A     61  50  67 CALM      30.33F
IDAHO FALLS    CLOUDY    85  51  31 S13       30.06F
BOISE          SUNNY     90  41  18 N12G20    30.01F
SPOKANE        MOSUNNY   78  40  25 SW24      30.03S
$$

REGIONAL REPORTS...ALBERTA

CITY           SKY/WX    TMP DP  RH WIND       PRES   REMARKS
EDMONTON       SUNNY     75  57  53 E17G23    29.80F
CALGARY        MOSUNNY   81  37  21 SW12G20   29.81F
LETHBRIDGE     PTSUNNY   82  45  26 CALM      29.84F THUNDER
WATERTON GATE    N/A     79  39  24 W12G18      N/A
CARDSTON         N/A     84  43  23 NW8         N/A
MILK RIVER       N/A     86  48  26 NE9         N/A
$$

REGIONAL REPORTS...SASKATCHEWAN

CITY           SKY/WX    TMP DP  RH WIND       PRES   REMARKS
SWIFT CURRENT  SUNNY     90  39  17 S12G18    29.84F
REGINA         MOSUNNY   88  52  29 SE16      29.88F
SASKATOON      PTSUNNY   81  55  41 NE13G20   29.89S
CYPRESS HILLS    N/A     84  36  17 SW8         N/A
ROCKGLEN         N/A     88  48  25 E9          N/A
ASSINIBOIA       N/A     79  55  44 E20G26      N/A
$$




USA.gov is the U.S. government's official web portal to all federal, state and local government web resources and services.